User: anonymous   Login
Location: Unspecified
(0.0000°N, 0.0000°E)
Time: 10:33:29
(UTC+00:00)
Language:

NOSS 8 (A) - Orbit

View from above orbital plane
View from above orbital plane
View from above satellite
View from above satellite

Ground track
Ground track

The orbit data is extracted from the following two-line orbital elements,

1 17997U 87043A   18192.89256506 0.00001000  00000-0  11185-3 0    00
2 17997  63.3044 140.5208 0889031  53.0514 306.9486 13.48144131    08
Epoch (UTC): 11 July 2018 21:25:17
Eccentricity: 0.0889031
inclination: 63.3044°
perigee height: 416 km
apogee height: 1742 km
right ascension of ascending node: 140.5208°
argument of perigee: 53.0514°
revolutions per day: 13.48144131
mean anomaly at epoch: 306.9486°
orbit number at epoch: 0

The dashed part of the orbit path shows where the satellite is in the earth's shadow,  

DLR